,,PA_Meas_PMT16A,,PR_Meas_QMR101_102,,RH_Meas_QMH101,,SR_Meas_QMS101,,TA_Meas_QMH101,,GenWind,,GenWind,
time,status,PA,status,PR,status,RH,status,SR,status,TA,status,DirAvg,status,SpdAvg,
2016-07-05, 08:19:04,VALID,918.112,VALID,0,INVALID,113.147,VALID,129.144,VALID,21.3998,VALID,150,VALID,0,
2016-07-05, 08:20:04,VALID,918.131,VALID,0,INVALID,113.002,VALID,129.467,VALID,21.4794,VALID,150,VALID,0,
2016-07-05, 08:21:04,VALID,918.119,VALID,0,INVALID,113.307,VALID,130.004,VALID,21.5363,VALID,150,VALID,0,
2016-07-05, 08:22:04,VALID,918.147,VALID,0,INVALID,113.063,VALID,131.83,VALID,21.5754,VALID,133,VALID,0,
2016-07-05, 08:23:04,VALID,918.153,VALID,0,INVALID,113.2,VALID,134.839,VALID,21.6339,VALID,130,VALID,0,
2016-07-05, 08:24:04,VALID,918.168,VALID,0,INVALID,112.323,VALID,138.814,VALID,21.6339,VALID,111,VALID,0,
2016-07-05, 08:25:04,VALID,918.18,VALID,0,INVALID,112.018,VALID,142.789,VALID,21.6924,VALID,111,VALID,0,
2016-07-05, 08:26:04,VALID,918.16,VALID,0,INVALID,112.125,VALID,147.087,VALID,21.751,VALID,111,VALID,0,
2016-07-05, 08:27:04,VALID,918.178,VALID,0,INVALID,111.546,VALID,151.599,VALID,21.79,VALID,111,VALID,0,
2016-07-05, 08:28:04,VALID,918.173,VALID,0,INVALID,110.837,VALID,152.889,VALID,21.8095,VALID,111,VALID,0,
2016-07-05, 08:29:04,VALID,918.194,VALID,0,INVALID,111.088,VALID,152.781,VALID,21.8485,VALID,111,VALID,0,
2016-07-05, 08:30:04,VALID,918.213,VALID,0,INVALID,111.614,VALID,153.533,VALID,21.9071,VALID,111,VALID,0,
2016-07-05, 08:31:04,VALID,918.176,VALID,0,INVALID,111.599,VALID,154.823,VALID,21.9851,VALID,82,VALID,0,
2016-07-05, 08:32:04,VALID,918.215,VALID,0,INVALID,111.02,VALID,158.583,VALID,21.9851,VALID,82,VALID,0,
2016-07-05, 08:33:04,VALID,918.229,VALID,0,INVALID,110.616,VALID,163.203,VALID,21.9249,VALID,82,VALID,0,
2016-07-05, 08:34:04,VALID,918.259,VALID,0,INVALID,110.989,VALID,166.856,VALID,21.9851,VALID,82,VALID,0,
2016-07-05, 08:35:04,VALID,918.248,VALID,0,INVALID,111.317,VALID,166.749,VALID,22.003,VALID,82,VALID,0,
2016-07-05, 08:36:04,VALID,918.273,VALID,0,INVALID,110.852,VALID,167.823,VALID,22.042,VALID,82,VALID,0,
2016-07-05, 08:37:04,VALID,918.274,VALID,0,INVALID,109.8,VALID,172.121,VALID,22.0242,VALID,82,VALID,0,
2016-07-05, 08:38:04,VALID,918.296,VALID,0,INVALID,109.724,VALID,179.642,VALID,21.9444,VALID,82,VALID,0,
2016-07-05, 08:39:04,VALID,918.296,VALID,0,INVALID,109.792,VALID,186.196,VALID,21.9444,VALID,82,VALID,0,
2016-07-05, 08:40:04,VALID,918.324,VALID,0,INVALID,110.334,VALID,191.353,VALID,22.0047,VALID,82,VALID,0,
2016-07-05, 08:41:04,VALID,918.339,VALID,0,INVALID,110.555,VALID,197.584,VALID,22.1005,VALID,82,VALID,0,
2016-07-05, 08:42:04,VALID,918.325,VALID,0,INVALID,109.831,VALID,234.329,VALID,22.1981,VALID,82,VALID,0,
2016-07-05, 08:43:04,VALID,918.331,VALID,0,VALID,104,VALID,204.675,VALID,22.2567,VALID,82,VALID,0,
2016-07-05, 08:44:04,VALID,918.357,VALID,0,VALID,104,VALID,206.609,VALID,22.3152,VALID,83,VALID,0,
2016-07-05, 08:45:04,VALID,918.38,VALID,0,VALID,104,VALID,211.014,VALID,22.4128,VALID,82,VALID,0,
2016-07-05, 08:46:04,VALID,918.399,VALID,0,VALID,104,VALID,220.469,VALID,22.4713,VALID,82,VALID,0,
2016-07-05, 08:47:04,VALID,918.418,VALID,0,VALID,104,VALID,230.032,VALID,22.5103,VALID,83,VALID,0,
2016-07-05, 08:48:04,VALID,918.403,VALID,0,VALID,104,VALID,253.131,VALID,22.6079,VALID,82,VALID,0,
2016-07-05, 08:49:04,VALID,918.444,VALID,0,VALID,104,VALID,241.85,VALID,22.7641,VALID,82,VALID,0,
2016-07-05, 08:50:04,VALID,918.447,VALID,0,VALID,103.427,VALID,430.087,VALID,22.7818,VALID,83,VALID,0,
2016-07-05, 08:51:04,VALID,918.44,VALID,0,VALID,96.0703,VALID,451.145,VALID,22.8812,VALID,83,VALID,0,
2016-07-05, 08:52:04,VALID,918.463,VALID,0,VALID,91.9308,VALID,269.462,VALID,22.977,VALID,82,VALID,0,
2016-07-05, 08:53:04,VALID,918.49,VALID,0,VALID,88.828,VALID,289.876,VALID,23.0373,VALID,293,VALID,0,
2016-07-05, 08:54:04,VALID,918.504,VALID,0,VALID,96.055,VALID,283.43,VALID,22.9415,VALID,281,VALID,0,
2016-07-05, 08:55:04,VALID,918.478,VALID,0,VALID,96.5353,VALID,300.083,VALID,22.8812,VALID,281,VALID,0,
2016-07-05, 08:56:04,VALID,918.492,VALID,0,VALID,102.314,VALID,356.167,VALID,22.8616,VALID,281,VALID,0,
2016-07-05, 08:57:04,VALID,918.49,VALID,0,VALID,97.8847,VALID,450.393,VALID,22.9202,VALID,281,VALID,0,
2016-07-05, 08:58:04,VALID,918.466,VALID,0,VALID,102.718,VALID,326.729,VALID,23.0356,VALID,325,VALID,0,
2016-07-05, 08:59:04,VALID,918.461,VALID,0,VALID,94.4999,VALID,299.116,VALID,23.2502,VALID,278,VALID,0,
2016-07-05, 09:00:04,VALID,918.492,VALID,0,VALID,86.9984,VALID,253.669,VALID,23.2307,VALID,260,VALID,0,
2016-07-05, 09:01:04,VALID,918.463,VALID,0,VALID,85.6186,VALID,246.47,VALID,23.1136,VALID,273,VALID,0,
2016-07-05, 09:02:04,VALID,918.48,VALID,0,VALID,89.1177,VALID,300.835,VALID,23.0338,VALID,273,VALID,0,
2016-07-05, 09:03:04,VALID,918.472,VALID,0,VALID,92.8761,VALID,507.982,VALID,23.0338,VALID,283,VALID,0,
2016-07-05, 09:04:04,VALID,918.513,VALID,0,VALID,93.1734,VALID,430.946,VALID,23.0924,VALID,305,VALID,0,
2016-07-05, 09:05:04,VALID,918.483,VALID,0,VALID,92.2357,VALID,532.156,VALID,23.2502,VALID,345,VALID,0,
2016-07-05, 09:06:04,VALID,918.509,VALID,0,VALID,86.9832,VALID,529.792,VALID,23.4064,VALID,304,VALID,0,
2016-07-05, 09:07:04,VALID,918.505,VALID,0,VALID,86.2513,VALID,522.701,VALID,23.6602,VALID,29,VALID,0,
2016-07-05, 09:08:04,VALID,918.499,VALID,0,VALID,81.3495,VALID,520.445,VALID,23.9725,VALID,13,VALID,0,
2016-07-05, 09:09:04,VALID,918.516,VALID,0,VALID,81.258,VALID,516.255,VALID,24.0701,VALID,10,VALID,0,
2016-07-05, 09:10:04,VALID,918.512,VALID,0,VALID,80.3356,VALID,509.701,VALID,24.1659,VALID,5,VALID,0,
2016-07-05, 09:11:04,VALID,918.488,VALID,0,VALID,78.8719,VALID,490.361,VALID,24.244,VALID,355,VALID,0,
2016-07-05, 09:12:04,VALID,918.499,VALID,0,VALID,78.1248,VALID,484.989,VALID,24.283,VALID,1,VALID,0,
2016-07-05, 09:13:04,VALID,918.474,VALID,0,VALID,79.0472,VALID,488.427,VALID,24.3221,VALID,2,VALID,0,
2016-07-05, 09:14:04,VALID,918.467,VALID,0,VALID,79.6113,VALID,482.841,VALID,24.3611,VALID,6,VALID,0,
2016-07-05, 09:15:04,VALID,918.482,VALID,0,VALID,79.6342,VALID,481.014,VALID,24.4606,VALID,28,VALID,0,
2016-07-05, 09:16:04,VALID,918.479,VALID,0,VALID,77.8275,VALID,480.692,VALID,24.5973,VALID,312,VALID,0,
2016-07-05, 09:17:04,VALID,918.471,VALID,0,VALID,77.4463,VALID,480.155,VALID,24.4997,VALID,272,VALID,0.623828,
2016-07-05, 09:18:04,VALID,918.472,VALID,0,VALID,77.5759,VALID,487.783,VALID,24.4587,VALID,338,VALID,0.382813,
2016-07-05, 09:19:04,VALID,918.48,VALID,0,VALID,78.3154,VALID,497.99,VALID,24.5759,VALID,357,VALID,0,
2016-07-05, 09:20:04,VALID,918.481,VALID,0,VALID,78.018,VALID,504.114,VALID,24.6754,VALID,302,VALID,0,
2016-07-05, 09:21:04,VALID,918.467,VALID,0,VALID,77.5301,VALID,504.114,VALID,24.7321,VALID,319,VALID,0,
2016-07-05, 09:22:04,VALID,918.47,VALID,0,VALID,74.8391,VALID,504.221,VALID,24.8297,VALID,261,VALID,0,
2016-07-05, 09:23:04,VALID,918.475,VALID,0,VALID,76.5315,VALID,505.833,VALID,24.5954,VALID,248,VALID,0,
2016-07-05, 09:24:04,VALID,918.518,VALID,0,VALID,77.1795,VALID,507.552,VALID,24.4002,VALID,252,VALID,0,
2016-07-05, 09:25:04,VALID,918.511,VALID,0,VALID,78.9557,VALID,510.023,VALID,24.3983,VALID,252,VALID,0,
2016-07-05, 09:26:04,VALID,918.548,VALID,0,VALID,77.8732,VALID,513.569,VALID,24.535,VALID,281,VALID,0,
2016-07-05, 09:27:04,VALID,918.559,VALID,0,VALID,76.1732,VALID,522.594,VALID,24.4764,VALID,274,VALID,0,
2016-07-05, 09:28:04,VALID,918.561,VALID,0,VALID,77.1947,VALID,528.718,VALID,24.2635,VALID,264,VALID,0,
2016-07-05, 09:29:04,VALID,918.581,VALID,0,VALID,78.201,VALID,541.289,VALID,24.3026,VALID,278,VALID,0,
2016-07-05, 09:30:04,VALID,918.603,VALID,0,VALID,76.0283,VALID,546.338,VALID,24.4197,VALID,285,VALID,0,
2016-07-05, 09:31:04,VALID,918.612,VALID,0,VALID,76.4629,VALID,508.197,VALID,24.2617,VALID,273,VALID,0,
2016-07-05, 09:32:04,VALID,918.617,VALID,0,VALID,77.6369,VALID,562.24,VALID,24.2226,VALID,288,VALID,0,
2016-07-05, 09:33:04,VALID,918.652,VALID,0,VALID,78.4373,VALID,562.454,VALID,24.3007,VALID,281,VALID,0,
2016-07-05, 09:34:04,VALID,918.666,VALID,0,VALID,78.14,VALID,567.934,VALID,24.2812,VALID,267,VALID,0,
2016-07-05, 09:35:04,VALID,918.664,VALID,0,VALID,78.0485,VALID,573.843,VALID,24.3788,VALID,19,VALID,0,
2016-07-05, 09:36:04,VALID,918.642,VALID,0,VALID,77.7207,VALID,575.777,VALID,24.4745,VALID,308,VALID,0.453125,
2016-07-05, 09:37:04,VALID,918.643,VALID,0,VALID,78.7346,VALID,572.554,VALID,24.5526,VALID,294,VALID,0,
2016-07-05, 09:38:04,VALID,918.644,VALID,0,VALID,76.4934,VALID,570.62,VALID,24.6307,VALID,310,VALID,0,
2016-07-05, 09:39:04,VALID,918.648,VALID,0,VALID,77.088,VALID,572.876,VALID,24.6521,VALID,254,VALID,0,
2016-07-05, 09:40:04,VALID,918.623,VALID,0,VALID,76.7297,VALID,573.951,VALID,24.5935,VALID,278,VALID,0,
2016-07-05, 09:41:04,VALID,918.615,VALID,0,VALID,77.3472,VALID,176.633,VALID,24.4392,VALID,290,VALID,0,
2016-07-05, 09:42:04,VALID,918.613,VALID,0,VALID,77.9952,VALID,362.936,VALID,24.3416,VALID,285,VALID,0,
2016-07-05, 09:43:04,VALID,918.613,VALID,0,VALID,79.2759,VALID,257.859,VALID,24.2226,VALID,255,VALID,0,
2016-07-05, 09:44:04,VALID,918.603,VALID,0,VALID,78.8185,VALID,616.068,VALID,24.2031,VALID,254,VALID,0,
2016-07-05, 09:45:04,VALID,918.568,VALID,0,VALID,78.4983,VALID,213.486,VALID,24.3202,VALID,256,VALID,0,
2016-07-05, 09:46:04,VALID,918.553,VALID,0,VALID,77.5149,VALID,185.551,VALID,24.5136,VALID,241,VALID,0,
2016-07-05, 09:47:04,VALID,918.556,VALID,0,VALID,77.4844,VALID,281.711,VALID,24.5935,VALID,281,VALID,0,
2016-07-05, 09:48:04,VALID,918.542,VALID,0,VALID,78.5288,VALID,458.451,VALID,24.4959,VALID,272,VALID,0,
2016-07-05, 09:49:04,VALID,918.533,VALID,0,VALID,78.262,VALID,621.869,VALID,24.5173,VALID,253,VALID,0,
2016-07-05, 09:50:04,VALID,918.551,VALID,0,VALID,79.2454,VALID,600.918,VALID,24.6131,VALID,237,VALID,0,
2016-07-05, 09:51:04,VALID,918.55,VALID,0,VALID,76.9965,VALID,603.712,VALID,24.8864,VALID,288,VALID,0,
2016-07-05, 09:52:04,VALID,918.557,VALID,0,VALID,75.3727,VALID,592.216,VALID,24.8474,VALID,285,VALID,0,
2016-07-05, 09:53:04,VALID,918.529,VALID,0,VALID,77.1185,VALID,599.307,VALID,24.865,VALID,340,VALID,0,
2016-07-05, 09:54:04,VALID,918.515,VALID,0,VALID,75.792,VALID,598.555,VALID,25.1012,VALID,254,VALID,0,
2016-07-05, 09:55:04,VALID,918.512,VALID,0,VALID,74.4808,VALID,599.629,VALID,25.1793,VALID,300,VALID,0,
2016-07-05, 09:56:04,VALID,918.484,VALID,0,VALID,74.0691,VALID,598.877,VALID,25.2379,VALID,244,VALID,0,
2016-07-05, 09:57:04,VALID,918.495,VALID,0,VALID,74.2673,VALID,603.819,VALID,25.275,VALID,221,VALID,0,
2016-07-05, 09:58:04,VALID,918.466,VALID,0,VALID,74.5265,VALID,597.05,VALID,25.4527,VALID,307,VALID,0,
2016-07-05, 09:59:04,VALID,918.481,VALID,0,VALID,73.5355,VALID,599.737,VALID,25.3941,VALID,299,VALID,0,
2016-07-05, 10:00:04,VALID,918.441,VALID,0,VALID,73.0628,VALID,602.315,VALID,25.2164,VALID,287,VALID,0,
2016-07-05, 10:01:04,VALID,918.441,VALID,0,VALID,74.435,VALID,606.076,VALID,25.1188,VALID,274,VALID,0,
2016-07-05, 10:02:04,VALID,918.447,VALID,0,VALID,73.8404,VALID,610.803,VALID,25.2379,VALID,257,VALID,0,
2016-07-05, 10:03:04,VALID,918.44,VALID,0,VALID,73.2458,VALID,612.092,VALID,25.1969,VALID,274,VALID,0,
2016-07-05, 10:04:04,VALID,918.453,VALID,0,VALID,73.1924,VALID,613.382,VALID,25.236,VALID,257,VALID,0,
2016-07-05, 10:05:04,VALID,918.45,VALID,0,VALID,73.8633,VALID,613.059,VALID,25.1207,VALID,261,VALID,0,
2016-07-05, 10:06:04,VALID,918.465,VALID,0,VALID,74.3588,VALID,615.53,VALID,25.1207,VALID,269,VALID,0,
2016-07-05, 10:07:04,VALID,918.438,VALID,0,VALID,74.5418,VALID,617.035,VALID,25.2555,VALID,255,VALID,0,
2016-07-05, 10:08:04,VALID,918.465,VALID,0,VALID,74.6637,VALID,620.365,VALID,25.3336,VALID,263,VALID,0,
2016-07-05, 10:09:04,VALID,918.456,VALID,0,VALID,74.214,VALID,619.935,VALID,25.5679,VALID,360,VALID,0,
2016-07-05, 10:10:04,VALID,918.47,VALID,0,VALID,73.3525,VALID,622.836,VALID,25.8413,VALID,359,VALID,0,
2016-07-05, 10:11:04,VALID,918.461,VALID,0,VALID,69.2969,VALID,627.994,VALID,26.0171,VALID,238,VALID,0,
2016-07-05, 10:12:04,VALID,918.483,VALID,0,VALID,69.8534,VALID,637.663,VALID,25.9585,VALID,242,VALID,0,
2016-07-05, 10:13:04,VALID,918.51,VALID,0,VALID,70.4937,VALID,640.349,VALID,26.0366,VALID,244,VALID,0,
2016-07-05, 10:14:04,VALID,918.49,VALID,0,VALID,72.087,VALID,645.829,VALID,26.271,VALID,178,VALID,0,
2016-07-05, 10:15:04,VALID,918.509,VALID,0,VALID,68.2448,VALID,653.242,VALID,26.5835,VALID,255,VALID,0.126563,
2016-07-05, 10:16:04,VALID,918.531,VALID,0,VALID,67.8408,VALID,650.878,VALID,26.8374,VALID,334,VALID,0.544141,
2016-07-05, 10:17:04,VALID,918.484,VALID,0,VALID,71.4009,VALID,656.788,VALID,26.896,VALID,3,VALID,0.786719,
2016-07-05, 10:18:04,VALID,918.526,VALID,0,VALID,69.1291,VALID,667.532,VALID,26.6421,VALID,358,VALID,0.0230469,
2016-07-05, 10:19:04,VALID,918.549,VALID,0,VALID,67.8636,VALID,671.507,VALID,26.5444,VALID,18,VALID,0,
2016-07-05, 10:20:04,VALID,918.53,VALID,0,VALID,68.8699,VALID,670.755,VALID,26.5033,VALID,360,VALID,0,
2016-07-05, 10:21:04,VALID,918.542,VALID,0,VALID,71.2789,VALID,549.347,VALID,26.3666,VALID,360,VALID,0.316016,
2016-07-05, 10:22:04,VALID,918.51,VALID,0,VALID,70.0516,VALID,674.408,VALID,26.1713,VALID,349,VALID,0.0417969,
2016-07-05, 10:23:04,VALID,918.487,VALID,0,VALID,72.8417,VALID,655.176,VALID,26.0346,VALID,13,VALID,0,
2016-07-05, 10:24:04,VALID,918.491,VALID,0,VALID,72.1785,VALID,664.201,VALID,25.7847,VALID,8,VALID,0,
2016-07-05, 10:25:04,VALID,918.481,VALID,0,VALID,71.2179,VALID,285.256,VALID,25.7651,VALID,332,VALID,0,
2016-07-05, 10:26:04,VALID,918.477,VALID,0,VALID,71.3323,VALID,665.168,VALID,25.8022,VALID,326,VALID,0,
2016-07-05, 10:27:04,VALID,918.5,VALID,0,VALID,71.2332,VALID,667.854,VALID,25.9389,VALID,358,VALID,0,
2016-07-05, 10:28:04,VALID,918.512,VALID,0,VALID,70.265,VALID,191.353,VALID,26.1342,VALID,333,VALID,0,
2016-07-05, 10:29:04,VALID,918.513,VALID,0,VALID,69.2359,VALID,705.244,VALID,26.2905,VALID,340,VALID,0,
2016-07-05, 10:30:04,VALID,918.516,VALID,0,VALID,68.9386,VALID,713.624,VALID,26.4858,VALID,8,VALID,0,
2016-07-05, 10:31:04,VALID,918.501,VALID,0,VALID,67.8636,VALID,657.862,VALID,26.6616,VALID,344,VALID,0,
2016-07-05, 10:32:04,VALID,918.478,VALID,0,VALID,67.1318,VALID,743.385,VALID,26.7768,VALID,288,VALID,0,
2016-07-05, 10:33:04,VALID,918.457,VALID,0,VALID,66.0112,VALID,511.635,VALID,26.894,VALID,255,VALID,0,
2016-07-05, 10:34:04,VALID,918.43,VALID,0,VALID,66.095,VALID,290.413,VALID,26.7007,VALID,247,VALID,0,
2016-07-05, 10:35:04,VALID,918.395,VALID,0,VALID,66.2475,VALID,705.351,VALID,26.6205,VALID,217,VALID,0,
2016-07-05, 10:36:04,VALID,918.382,VALID,0,VALID,67.3148,VALID,692.136,VALID,26.7573,VALID,15,VALID,0,
2016-07-05, 10:37:04,VALID,918.37,VALID,0,VALID,68.8776,VALID,721.36,VALID,26.7768,VALID,20,VALID,0,
2016-07-05, 10:38:04,VALID,918.332,VALID,0,VALID,65.0582,VALID,277.306,VALID,26.7573,VALID,8,VALID,0.561328,
2016-07-05, 10:39:04,VALID,918.332,VALID,0,VALID,66.1255,VALID,713.732,VALID,26.7007,VALID,56,VALID,0.0289063,
2016-07-05, 10:40:04,VALID,918.369,VALID,0,VALID,67.9399,VALID,221.436,VALID,26.7593,VALID,276,VALID,0.14375,
2016-07-05, 10:41:04,VALID,918.374,VALID,0,VALID,67.7341,VALID,730.063,VALID,26.4878,VALID,242,VALID,0.00429688,
2016-07-05, 10:42:04,VALID,918.352,VALID,0,VALID,68.8928,VALID,736.187,VALID,26.2514,VALID,222,VALID,0.880469,
2016-07-05, 10:43:04,VALID,918.34,VALID,0,VALID,67.7798,VALID,205.105,VALID,26.1538,VALID,223,VALID,0,
2016-07-05, 10:44:04,VALID,918.336,VALID,0,VALID,69.6856,VALID,217.353,VALID,26.0171,VALID,269,VALID,0,
2016-07-05, 10:45:04,VALID,918.331,VALID,0,VALID,70.2955,VALID,728.773,VALID,25.978,VALID,265,VALID,0,
2016-07-05, 10:46:04,VALID,918.335,VALID,0,VALID,71.0807,VALID,729.096,VALID,26.1362,VALID,284,VALID,0,
2016-07-05, 10:47:04,VALID,918.35,VALID,0,VALID,67.4596,VALID,402.367,VALID,26.3686,VALID,345,VALID,0,
2016-07-05, 10:48:04,VALID,918.353,VALID,0,VALID,65.9044,VALID,376.259,VALID,26.603,VALID,314,VALID,0.0417969,
2016-07-05, 10:49:04,VALID,918.338,VALID,0,VALID,66.7049,VALID,738.013,VALID,26.6421,VALID,26,VALID,1.31836,
2016-07-05, 10:50:04,VALID,918.335,VALID,0,VALID,66.1941,VALID,732.964,VALID,26.8374,VALID,338,VALID,0.00585938,
2016-07-05, 10:51:04,VALID,918.272,VALID,0,VALID,64.3188,VALID,733.178,VALID,26.9351,VALID,344,VALID,0,
2016-07-05, 10:52:04,VALID,918.263,VALID,0,VALID,63.0533,VALID,733.071,VALID,27.1109,VALID,3,VALID,0,
2016-07-05, 10:53:04,VALID,918.218,VALID,0,VALID,63.3887,VALID,736.294,VALID,27.3084,VALID,25,VALID,1.8543,
2016-07-05, 10:54:04,VALID,918.184,VALID,0,VALID,64.4484,VALID,736.939,VALID,27.0719,VALID,10,VALID,2.18281,
2016-07-05, 10:55:04,VALID,918.205,VALID,0,VALID,64.2502,VALID,720.393,VALID,26.7984,VALID,20,VALID,0.18125,
2016-07-05, 10:56:04,VALID,918.233,VALID,0,VALID,64.0443,VALID,714.806,VALID,26.7788,VALID,355,VALID,0.421484,
2016-07-05, 10:57:04,VALID,918.211,VALID,0,VALID,63.2286,VALID,715.343,VALID,26.8179,VALID,18,VALID,0,
2016-07-05, 10:58:04,VALID,918.177,VALID,0,VALID,64.9668,VALID,725.228,VALID,26.9546,VALID,348,VALID,0,
2016-07-05, 10:59:04,VALID,918.21,VALID,0,VALID,63.282,VALID,742.848,VALID,27.1891,VALID,296,VALID,0,
2016-07-05, 11:00:04,VALID,918.155,VALID,0,VALID,61.4905,VALID,750.584,VALID,27.2868,VALID,339,VALID,0,
2016-07-05, 11:01:04,VALID,918.198,VALID,0,VALID,62.1918,VALID,748.328,VALID,27.4821,VALID,282,VALID,0,
2016-07-05, 11:02:04,VALID,918.162,VALID,0,VALID,61.0788,VALID,748.435,VALID,27.5233,VALID,347,VALID,0.127344,
2016-07-05, 11:03:04,VALID,918.174,VALID,0,VALID,59.9658,VALID,757.675,VALID,27.5994,VALID,152,VALID,0,
2016-07-05, 11:04:04,VALID,918.13,VALID,0,VALID,59.9734,VALID,770.783,VALID,27.658,VALID,203,VALID,0,
2016-07-05, 11:05:04,VALID,918.161,VALID,0,VALID,58.9519,VALID,791.519,VALID,27.8143,VALID,166,VALID,0,
2016-07-05, 11:06:04,VALID,918.126,VALID,0,VALID,58.5402,VALID,690.847,VALID,27.9706,VALID,213,VALID,0,
2016-07-05, 11:07:04,VALID,918.121,VALID,0,VALID,59.6913,VALID,768.956,VALID,28.1465,VALID,6,VALID,0,
2016-07-05, 11:08:04,VALID,918.123,VALID,0,VALID,57.7016,VALID,769.708,VALID,28.2051,VALID,327,VALID,0,
2016-07-05, 11:09:04,VALID,918.058,VALID,0,VALID,59.699,VALID,763.584,VALID,28.0879,VALID,44,VALID,0,
2016-07-05, 11:10:04,VALID,918.086,VALID,0,VALID,58.5707,VALID,687.946,VALID,28.0879,VALID,325,VALID,0.252344,
2016-07-05, 11:11:04,VALID,918.069,VALID,0,VALID,58.2505,VALID,744.137,VALID,27.9706,VALID,271,VALID,0,
2016-07-05, 11:12:04,VALID,918.032,VALID,0,VALID,59.5846,VALID,741.666,VALID,27.8339,VALID,275,VALID,0,
2016-07-05, 11:13:04,VALID,918.032,VALID,0,VALID,60.042,VALID,744.89,VALID,28.0879,VALID,9,VALID,0,
2016-07-05, 11:14:04,VALID,918.02,VALID,0,VALID,60.3393,VALID,743.708,VALID,28.4006,VALID,9,VALID,0,
2016-07-05, 11:15:04,VALID,918.029,VALID,0,VALID,57.8236,VALID,743.493,VALID,28.2051,VALID,304,VALID,0,
2016-07-05, 11:16:04,VALID,918.036,VALID,0,VALID,60.3698,VALID,734.038,VALID,27.621,VALID,299,VALID,0,
2016-07-05, 11:17:04,VALID,918.012,VALID,0,VALID,61.9021,VALID,774.651,VALID,27.4235,VALID,327,VALID,0,
2016-07-05, 11:18:04,VALID,918.015,VALID,0,VALID,61.2465,VALID,792.378,VALID,27.3063,VALID,308,VALID,0,
2016-07-05, 11:19:04,VALID,918.015,VALID,0,VALID,62.1461,VALID,766.807,VALID,27.2281,VALID,13,VALID,0,
2016-07-05, 11:20:04,VALID,918.005,VALID,0,VALID,61.5591,VALID,751.658,VALID,27.3258,VALID,4,VALID,0,
2016-07-05, 11:21:04,VALID,917.984,VALID,0,VALID,60.0192,VALID,602.315,VALID,27.3258,VALID,267,VALID,0,
2016-07-05, 11:22:04,VALID,917.939,VALID,0,VALID,61.7039,VALID,743.708,VALID,27.1305,VALID,246,VALID,0,
2016-07-05, 11:23:04,VALID,917.957,VALID,0,VALID,60.7967,VALID,757.138,VALID,27.15,VALID,213,VALID,0,
2016-07-05, 11:24:04,VALID,917.949,VALID,0,VALID,63.0838,VALID,765.411,VALID,27.404,VALID,255,VALID,0,
2016-07-05, 11:25:04,VALID,917.947,VALID,0,VALID,60.568,VALID,777.874,VALID,27.7362,VALID,327,VALID,0,
2016-07-05, 11:26:04,VALID,917.915,VALID,0,VALID,59.6532,VALID,782.601,VALID,27.6971,VALID,321,VALID,0,
2016-07-05, 11:27:04,VALID,917.938,VALID,0,VALID,60.1716,VALID,780.023,VALID,27.7557,VALID,2,VALID,0,
2016-07-05, 11:28:04,VALID,917.907,VALID,0,VALID,60.286,VALID,798.18,VALID,27.8513,VALID,330,VALID,0,
2016-07-05, 11:29:04,VALID,917.918,VALID,0,VALID,60.2174,VALID,417.301,VALID,28.0488,VALID,4,VALID,0,
2016-07-05, 11:30:04,VALID,917.879,VALID,0,VALID,58.525,VALID,475.964,VALID,27.9706,VALID,38,VALID,0,
2016-07-05, 11:31:04,VALID,917.87,VALID,0,VALID,62.0775,VALID,750.476,VALID,27.8513,VALID,21,VALID,0.00625,
2016-07-05, 11:32:04,VALID,917.845,VALID,0,VALID,61.5362,VALID,767.667,VALID,27.8143,VALID,15,VALID,0,
2016-07-05, 11:33:04,VALID,917.868,VALID,0,VALID,60.7205,VALID,762.402,VALID,27.8925,VALID,6,VALID,0.534766,
2016-07-05, 11:34:04,VALID,917.901,VALID,0,VALID,61.2237,VALID,763.477,VALID,28.0879,VALID,293,VALID,0.0308594,
2016-07-05, 11:35:04,VALID,917.873,VALID,0,VALID,57.7474,VALID,766.807,VALID,28.3029,VALID,46,VALID,0,
2016-07-05, 11:36:04,VALID,917.919,VALID,0,VALID,57.7702,VALID,766.915,VALID,28.5352,VALID,17,VALID,0,
2016-07-05, 11:37:04,VALID,917.89,VALID,0,VALID,59.6304,VALID,757.245,VALID,28.6938,VALID,18,VALID,0,
2016-07-05, 11:38:04,VALID,917.86,VALID,0,VALID,57.4424,VALID,769.923,VALID,28.7719,VALID,266,VALID,0,
2016-07-05, 11:39:04,VALID,917.883,VALID,0,VALID,56.5886,VALID,774.328,VALID,28.7524,VALID,337,VALID,0,
2016-07-05, 11:40:04,VALID,917.865,VALID,0,VALID,58.8909,VALID,393.987,VALID,28.6329,VALID,343,VALID,1.15078,
2016-07-05, 11:41:04,VALID,917.841,VALID,0,VALID,56.8631,VALID,764.121,VALID,28.4397,VALID,334,VALID,0.0671875,
2016-07-05, 11:42:04,VALID,917.829,VALID,0,VALID,58.2505,VALID,763.262,VALID,28.1465,VALID,352,VALID,0,
2016-07-05, 11:43:04,VALID,917.828,VALID,0,VALID,59.2339,VALID,768.312,VALID,27.9902,VALID,7,VALID,0.304688,
2016-07-05, 11:44:04,VALID,917.816,VALID,0,VALID,58.5783,VALID,772.502,VALID,27.912,VALID,12,VALID,0,
2016-07-05, 11:45:04,VALID,917.801,VALID,0,VALID,57.938,VALID,776.477,VALID,27.8904,VALID,18,VALID,0,
2016-07-05, 11:46:04,VALID,917.783,VALID,0,VALID,60.0344,VALID,774.006,VALID,28.1074,VALID,35,VALID,0.289844,
2016-07-05, 11:47:04,VALID,917.752,VALID,0,VALID,58.0676,VALID,767.989,VALID,28.1248,VALID,274,VALID,0,
2016-07-05, 11:48:04,VALID,917.716,VALID,0,VALID,57.816,VALID,778.196,VALID,28.2833,VALID,48,VALID,0.202344,
2016-07-05, 11:49:04,VALID,917.683,VALID,0,VALID,56.9927,VALID,786.899,VALID,28.5157,VALID,20,VALID,1.10508,
2016-07-05, 11:50:04,VALID,917.692,VALID,0,VALID,57.9532,VALID,795.172,VALID,28.4592,VALID,16,VALID,0.383203,
2016-07-05, 11:51:04,VALID,917.724,VALID,0,VALID,58.0599,VALID,799.685,VALID,28.4375,VALID,23,VALID,0.883203,
2016-07-05, 11:52:04,VALID,917.712,VALID,0,VALID,56.642,VALID,802.908,VALID,28.3029,VALID,58,VALID,0,
2016-07-05, 11:53:04,VALID,917.696,VALID,0,VALID,56.7487,VALID,814.511,VALID,28.418,VALID,58,VALID,0,
2016-07-05, 11:54:04,VALID,917.737,VALID,0,VALID,56.7335,VALID,815.371,VALID,28.6351,VALID,88,VALID,0,
2016-07-05, 11:55:04,VALID,917.712,VALID,0,VALID,56.1465,VALID,817.09,VALID,28.8501,VALID,13,VALID,1.32266,
2016-07-05, 11:56:04,VALID,917.695,VALID,0,VALID,54.2406,VALID,811.718,VALID,29.0065,VALID,276,VALID,0.489844,
2016-07-05, 11:57:04,VALID,917.683,VALID,0,VALID,56.398,VALID,803.338,VALID,28.8675,VALID,64,VALID,0,
2016-07-05, 11:58:04,VALID,917.66,VALID,0,VALID,55.4604,VALID,797.106,VALID,29.0629,VALID,42,VALID,0.00429688,
2016-07-05, 11:59:04,VALID,917.701,VALID,0,VALID,53.0666,VALID,786.684,VALID,29.2606,VALID,21,VALID,0.0289063,
2016-07-05, 12:00:04,VALID,917.681,VALID,0,VALID,55.3536,VALID,801.189,VALID,29.2584,VALID,20,VALID,0,
2016-07-05, 12:01:04,VALID,917.712,VALID,0,VALID,52.3195,VALID,826.652,VALID,29.3952,VALID,350,VALID,1.04492,
2016-07-05, 12:02:04,VALID,917.666,VALID,0,VALID,54.2635,VALID,827.189,VALID,29.2388,VALID,25,VALID,3.65391,
2016-07-05, 12:03:04,VALID,917.663,VALID,0,VALID,53.2801,VALID,824.718,VALID,29.1216,VALID,2,VALID,0.975781,